owner,sensor,date,latitude,longitude,sea_surface_height_above_sea_level,qcFlag 
WAVCIS,ioos:station:WAVCIS:CSI16:1,2012-03-01T00:00:00Z,29.4012,-89.0355,8.752,11111222 
WAVCIS,ioos:station:WAVCIS:CSI16:1,2012-03-01T01:00:00Z,29.4012,-89.0355,8.702,11111222 
WAVCIS,ioos:station:WAVCIS:CSI16:1,2012-03-01T02:00:00Z,29.4012,-89.0355,8.663,11111222 
WAVCIS,ioos:station:WAVCIS:CSI16:1,2012-03-01T03:00:00Z,29.4012,-89.0355,8.604,11111222 
WAVCIS,ioos:station:WAVCIS:CSI16:1,2012-03-01T04:00:00Z,29.4012,-89.0355,8.562,11111222 
WAVCIS,ioos:station:WAVCIS:CSI16:1,2012-03-01T05:00:00Z,29.4012,-89.0355,8.518,11111222 
WAVCIS,ioos:station:WAVCIS:CSI16:1,2012-03-01T06:00:00Z,29.4012,-89.0355,8.487,11111222 
WAVCIS,ioos:station:WAVCIS:CSI16:1,2012-03-01T07:00:00Z,29.4012,-89.0355,8.462,11111222 
WAVCIS,ioos:station:WAVCIS:CSI16:1,2012-03-01T08:00:00Z,29.4012,-89.0355,8.441,11111222 
WAVCIS,ioos:station:WAVCIS:CSI16:1,2012-03-01T09:00:00Z,29.4012,-89.0355,8.459,11111222 
WAVCIS,ioos:station:WAVCIS:CSI16:1,2012-03-01T10:00:00Z,29.4012,-89.0355,8.481,11111222 
WAVCIS,ioos:station:WAVCIS:CSI16:1,2012-03-01T11:00:00Z,29.4012,-89.0355,8.507,11111222 
WAVCIS,ioos:station:WAVCIS:CSI16:1,2012-03-01T12:00:00Z,29.4012,-89.0355,8.549,11111222 
WAVCIS,ioos:station:WAVCIS:CSI16:1,2012-03-01T13:00:00Z,29.4012,-89.0355,8.594,11111222 
WAVCIS,ioos:station:WAVCIS:CSI16:1,2012-03-01T14:00:00Z,29.4012,-89.0355,8.645,11111222 
WAVCIS,ioos:station:WAVCIS:CSI16:1,2012-03-01T15:00:00Z,29.4012,-89.0355,8.695,11111222 
WAVCIS,ioos:station:WAVCIS:CSI16:1,2012-03-01T16:00:00Z,29.4012,-89.0355,8.738,11111222 
WAVCIS,ioos:station:WAVCIS:CSI16:1,2012-03-01T17:00:00Z,29.4012,-89.0355,8.775,11111222 
WAVCIS,ioos:station:WAVCIS:CSI16:1,2012-03-01T18:00:00Z,29.4012,-89.0355,8.791,11111222 
WAVCIS,ioos:station:WAVCIS:CSI16:1,2012-03-01T19:00:00Z,29.4012,-89.0355,8.805,11111222 
WAVCIS,ioos:station:WAVCIS:CSI16:1,2012-03-01T20:00:00Z,29.4012,-89.0355,8.809,11111222 
WAVCIS,ioos:station:WAVCIS:CSI16:1,2012-03-01T21:00:00Z,29.4012,-89.0355,8.813,11111222 
WAVCIS,ioos:station:WAVCIS:CSI16:1,2012-03-01T22:00:00Z,29.4012,-89.0355,8.803,11111222 
WAVCIS,ioos:station:WAVCIS:CSI16:1,2012-03-01T23:00:00Z,29.4012,-89.0355,8.779,11111222 
WAVCIS,ioos:station:WAVCIS:CSI16:1,2012-03-02T00:00:00Z,29.4012,-89.0355,8.75,11111222 
WAVCIS,ioos:station:WAVCIS:CSI16:1,2012-03-02T01:00:00Z,29.4012,-89.0355,8.715,11111222 
WAVCIS,ioos:station:WAVCIS:CSI16:1,2012-03-02T02:00:00Z,29.4012,-89.0355,8.671,11111222 
WAVCIS,ioos:station:WAVCIS:CSI16:1,2012-03-02T03:00:00Z,29.4012,-89.0355,8.623,11111222 
WAVCIS,ioos:station:WAVCIS:CSI16:1,2012-03-02T04:00:00Z,29.4012,-89.0355,8.57,11111222 
WAVCIS,ioos:station:WAVCIS:CSI16:1,2012-03-02T05:00:00Z,29.4012,-89.0355,8.518,11111222 
WAVCIS,ioos:station:WAVCIS:CSI16:1,2012-03-02T06:00:00Z,29.4012,-89.0355,8.488,11111222 
WAVCIS,ioos:station:WAVCIS:CSI16:1,2012-03-02T07:00:00Z,29.4012,-89.0355,8.47,11111222 
WAVCIS,ioos:station:WAVCIS:CSI16:1,2012-03-02T08:00:00Z,29.4012,-89.0355,8.444,11111222 
WAVCIS,ioos:station:WAVCIS:CSI16:1,2012-03-02T09:00:00Z,29.4012,-89.0355,8.448,11111222 
WAVCIS,ioos:station:WAVCIS:CSI16:1,2012-03-02T10:00:00Z,29.4012,-89.0355,8.46,11111222 
WAVCIS,ioos:station:WAVCIS:CSI16:1,2012-03-02T11:00:00Z,29.4012,-89.0355,8.494,11111222 
WAVCIS,ioos:station:WAVCIS:CSI16:1,2012-03-02T12:00:00Z,29.4012,-89.0355,8.545,11111222 
WAVCIS,ioos:station:WAVCIS:CSI16:1,2012-03-02T13:00:00Z,29.4012,-89.0355,8.589,11111222 
WAVCIS,ioos:station:WAVCIS:CSI16:1,2012-03-02T14:00:00Z,29.4012,-89.0355,8.638,11111222 
WAVCIS,ioos:station:WAVCIS:CSI16:1,2012-03-02T15:00:00Z,29.4012,-89.0355,8.684,11111222 
WAVCIS,ioos:station:WAVCIS:CSI16:1,2012-03-02T16:00:00Z,29.4012,-89.0355,8.737,11111222 
WAVCIS,ioos:station:WAVCIS:CSI16:1,2012-03-02T17:00:00Z,29.4012,-89.0355,8.762,11111222 
WAVCIS,ioos:station:WAVCIS:CSI16:1,2012-03-02T18:00:00Z,29.4012,-89.0355,8.803,11111222 
WAVCIS,ioos:station:WAVCIS:CSI16:1,2012-03-02T19:00:00Z,29.4012,-89.0355,8.829,11111222 
WAVCIS,ioos:station:WAVCIS:CSI16:1,2012-03-02T20:00:00Z,29.4012,-89.0355,8.841,11111222 
WAVCIS,ioos:station:WAVCIS:CSI16:1,2012-03-02T21:00:00Z,29.4012,-89.0355,8.859,11111222 
WAVCIS,ioos:station:WAVCIS:CSI16:1,2012-03-02T22:00:00Z,29.4012,-89.0355,8.821,11111222 
WAVCIS,ioos:station:WAVCIS:CSI16:1,2012-03-02T23:00:00Z,29.4012,-89.0355,8.809,11111222 
WAVCIS,ioos:station:WAVCIS:CSI16:1,2012-03-03T00:00:00Z,29.4012,-89.0355,8.783,11111222 
WAVCIS,ioos:station:WAVCIS:CSI16:1,2012-03-03T01:00:00Z,29.4012,-89.0355,8.754,11111222 
WAVCIS,ioos:station:WAVCIS:CSI16:1,2012-03-03T02:00:00Z,29.4012,-89.0355,8.71,11111222 
WAVCIS,ioos:station:WAVCIS:CSI16:1,2012-03-03T03:00:00Z,29.4012,-89.0355,8.64,11111222 
WAVCIS,ioos:station:WAVCIS:CSI16:1,2012-03-03T04:00:00Z,29.4012,-89.0355,8.578,11111222 
WAVCIS,ioos:station:WAVCIS:CSI16:1,2012-03-03T05:00:00Z,29.4012,-89.0355,8.512,11111222 
WAVCIS,ioos:station:WAVCIS:CSI16:1,2012-03-03T06:00:00Z,29.4012,-89.0355,8.477,11111222 
WAVCIS,ioos:station:WAVCIS:CSI16:1,2012-03-03T07:00:00Z,29.4012,-89.0355,8.428,11111222 
WAVCIS,ioos:station:WAVCIS:CSI16:1,2012-03-03T08:00:00Z,29.4012,-89.0355,8.406,11111222 
WAVCIS,ioos:station:WAVCIS:CSI16:1,2012-03-03T09:00:00Z,29.4012,-89.0355,8.394,11111222 
WAVCIS,ioos:station:WAVCIS:CSI16:1,2012-03-03T10:00:00Z,29.4012,-89.0355,8.4,11111222 
WAVCIS,ioos:station:WAVCIS:CSI16:1,2012-03-03T11:00:00Z,29.4012,-89.0355,8.419,11111222 
WAVCIS,ioos:station:WAVCIS:CSI16:1,2012-03-03T12:00:00Z,29.4012,-89.0355,8.458,11111222 
WAVCIS,ioos:station:WAVCIS:CSI16:1,2012-03-03T13:00:00Z,29.4012,-89.0355,8.509,11111222 
WAVCIS,ioos:station:WAVCIS:CSI16:1,2012-03-03T14:00:00Z,29.4012,-89.0355,8.563,11111222 
WAVCIS,ioos:station:WAVCIS:CSI16:1,2012-03-03T15:00:00Z,29.4012,-89.0355,8.784,11111222 
WAVCIS,ioos:station:WAVCIS:CSI16:1,2012-03-03T16:00:00Z,29.4012,-89.0355,8.737,11111222 
WAVCIS,ioos:station:WAVCIS:CSI16:1,2012-03-03T17:00:00Z,29.4012,-89.0355,8.78,11111222 
WAVCIS,ioos:station:WAVCIS:CSI16:1,2012-03-03T18:00:00Z,29.4012,-89.0355,8.857,11111222 
WAVCIS,ioos:station:WAVCIS:CSI16:1,2012-03-03T19:00:00Z,29.4012,-89.0355,8.86,11111222 
WAVCIS,ioos:station:WAVCIS:CSI16:1,2012-03-03T20:00:00Z,29.4012,-89.0355,8.892,11111222 
WAVCIS,ioos:station:WAVCIS:CSI16:1,2012-03-03T21:00:00Z,29.4012,-89.0355,8.947,11111222 
WAVCIS,ioos:station:WAVCIS:CSI16:1,2012-03-03T22:00:00Z,29.4012,-89.0355,9.006,11111222 
WAVCIS,ioos:station:WAVCIS:CSI16:1,2012-03-03T23:00:00Z,29.4012,-89.0355,8.998,11111222 
WAVCIS,ioos:station:WAVCIS:CSI16:1,2012-03-04T00:00:00Z,29.4012,-89.0355,9.007,11111222 
WAVCIS,ioos:station:WAVCIS:CSI16:1,2012-03-04T01:00:00Z,29.4012,-89.0355,8.964,11111222 
WAVCIS,ioos:station:WAVCIS:CSI16:1,2012-03-04T02:00:00Z,29.4012,-89.0355,8.964,11111222 
WAVCIS,ioos:station:WAVCIS:CSI16:1,2012-03-04T03:00:00Z,29.4012,-89.0355,8.907,11111222 
WAVCIS,ioos:station:WAVCIS:CSI16:1,2012-03-04T04:00:00Z,29.4012,-89.0355,8.84,11111222 
WAVCIS,ioos:station:WAVCIS:CSI16:1,2012-03-04T05:00:00Z,29.4012,-89.0355,8.742,11111222 
WAVCIS,ioos:station:WAVCIS:CSI16:1,2012-03-04T06:00:00Z,29.4012,-89.0355,8.668,11111222 
WAVCIS,ioos:station:WAVCIS:CSI16:1,2012-03-04T07:00:00Z,29.4012,-89.0355,8.586,11111222 
WAVCIS,ioos:station:WAVCIS:CSI16:1,2012-03-04T08:00:00Z,29.4012,-89.0355,8.549,11111222 
WAVCIS,ioos:station:WAVCIS:CSI16:1,2012-03-04T09:00:00Z,29.4012,-89.0355,8.574,11111222 
WAVCIS,ioos:station:WAVCIS:CSI16:1,2012-03-04T10:00:00Z,29.4012,-89.0355,8.564,11111222 
WAVCIS,ioos:station:WAVCIS:CSI16:1,2012-03-04T11:00:00Z,29.4012,-89.0355,8.56,11111222 
WAVCIS,ioos:station:WAVCIS:CSI16:1,2012-03-04T12:00:00Z,29.4012,-89.0355,8.576,11111222 
WAVCIS,ioos:station:WAVCIS:CSI16:1,2012-03-04T13:00:00Z,29.4012,-89.0355,8.597,11111222 
WAVCIS,ioos:station:WAVCIS:CSI16:1,2012-03-04T14:00:00Z,29.4012,-89.0355,8.617,11111222 
WAVCIS,ioos:station:WAVCIS:CSI16:1,2012-03-04T15:00:00Z,29.4012,-89.0355,8.655,11111222 
WAVCIS,ioos:station:WAVCIS:CSI16:1,2012-03-04T16:00:00Z,29.4012,-89.0355,8.698,11111222 
WAVCIS,ioos:station:WAVCIS:CSI16:1,2012-03-04T17:00:00Z,29.4012,-89.0355,8.7,11111222 
WAVCIS,ioos:station:WAVCIS:CSI16:1,2012-03-04T18:00:00Z,29.4012,-89.0355,8.712,11111222 
WAVCIS,ioos:station:WAVCIS:CSI16:1,2012-03-04T19:00:00Z,29.4012,-89.0355,8.744,11111222 
WAVCIS,ioos:station:WAVCIS:CSI16:1,2012-03-04T20:00:00Z,29.4012,-89.0355,8.735,11111222 
WAVCIS,ioos:station:WAVCIS:CSI16:1,2012-03-04T21:00:00Z,29.4012,-89.0355,8.748,11111222 
WAVCIS,ioos:station:WAVCIS:CSI16:1,2012-03-04T22:00:00Z,29.4012,-89.0355,8.757,11111222 
WAVCIS,ioos:station:WAVCIS:CSI16:1,2012-03-04T23:00:00Z,29.4012,-89.0355,8.747,11111222 
WAVCIS,ioos:station:WAVCIS:CSI16:1,2012-03-05T00:00:00Z,29.4012,-89.0355,8.754,11111222 
WAVCIS,ioos:station:WAVCIS:CSI16:1,2012-03-05T01:00:00Z,29.4012,-89.0355,8.731,11111222 
WAVCIS,ioos:station:WAVCIS:CSI16:1,2012-03-05T02:00:00Z,29.4012,-89.0355,8.706,11111222 
WAVCIS,ioos:station:WAVCIS:CSI16:1,2012-03-05T03:00:00Z,29.4012,-89.0355,8.667,11111222 
WAVCIS,ioos:station:WAVCIS:CSI16:1,2012-03-05T04:00:00Z,29.4012,-89.0355,8.62,11111222 
WAVCIS,ioos:station:WAVCIS:CSI16:1,2012-03-05T05:00:00Z,29.4012,-89.0355,8.55,11111222 
WAVCIS,ioos:station:WAVCIS:CSI16:1,2012-03-05T06:00:00Z,29.4012,-89.0355,8.476,11111222 
WAVCIS,ioos:station:WAVCIS:CSI16:1,2012-03-05T07:00:00Z,29.4012,-89.0355,8.438,11111222 
WAVCIS,ioos:station:WAVCIS:CSI16:1,2012-03-05T08:00:00Z,29.4012,-89.0355,8.384,11111222 
WAVCIS,ioos:station:WAVCIS:CSI16:1,2012-03-05T09:00:00Z,29.4012,-89.0355,8.354,11111222 
WAVCIS,ioos:station:WAVCIS:CSI16:1,2012-03-05T10:00:00Z,29.4012,-89.0355,8.352,11111222 
WAVCIS,ioos:station:WAVCIS:CSI16:1,2012-03-05T11:00:00Z,29.4012,-89.0355,8.368,11111222 
WAVCIS,ioos:station:WAVCIS:CSI16:1,2012-03-05T12:00:00Z,29.4012,-89.0355,8.389,11111222 
WAVCIS,ioos:station:WAVCIS:CSI16:1,2012-03-05T13:00:00Z,29.4012,-89.0355,8.437,11111222 
WAVCIS,ioos:station:WAVCIS:CSI16:1,2012-03-05T14:00:00Z,29.4012,-89.0355,8.486,11111222 
WAVCIS,ioos:station:WAVCIS:CSI16:1,2012-03-05T15:00:00Z,29.4012,-89.0355,8.533,11111222 
WAVCIS,ioos:station:WAVCIS:CSI16:1,2012-03-05T16:00:00Z,29.4012,-89.0355,8.569,11111222 
WAVCIS,ioos:station:WAVCIS:CSI16:1,2012-03-05T17:00:00Z,29.4012,-89.0355,8.595,11111222 
WAVCIS,ioos:station:WAVCIS:CSI16:1,2012-03-05T18:00:00Z,29.4012,-89.0355,8.618,11111222 
WAVCIS,ioos:station:WAVCIS:CSI16:1,2012-03-05T19:00:00Z,29.4012,-89.0355,8.644,11111222 
WAVCIS,ioos:station:WAVCIS:CSI16:1,2012-03-05T20:00:00Z,29.4012,-89.0355,8.676,11111222 
WAVCIS,ioos:station:WAVCIS:CSI16:1,2012-03-05T21:00:00Z,29.4012,-89.0355,8.716,11111222 
WAVCIS,ioos:station:WAVCIS:CSI16:1,2012-03-05T22:00:00Z,29.4012,-89.0355,8.756,11111222 
WAVCIS,ioos:station:WAVCIS:CSI16:1,2012-03-05T23:00:00Z,29.4012,-89.0355,8.784,11111222 
WAVCIS,ioos:station:WAVCIS:CSI16:1,2012-03-06T00:00:00Z,29.4012,-89.0355,8.817,11111222 
WAVCIS,ioos:station:WAVCIS:CSI16:1,2012-03-06T01:00:00Z,29.4012,-89.0355,8.835,11111222 
WAVCIS,ioos:station:WAVCIS:CSI16:1,2012-03-06T02:00:00Z,29.4012,-89.0355,8.829,11111222 
WAVCIS,ioos:station:WAVCIS:CSI16:1,2012-03-06T03:00:00Z,29.4012,-89.0355,8.814,11111222 
WAVCIS,ioos:station:WAVCIS:CSI16:1,2012-03-06T04:00:00Z,29.4012,-89.0355,8.771,11111222 
WAVCIS,ioos:station:WAVCIS:CSI16:1,2012-03-06T05:00:00Z,29.4012,-89.0355,8.695,11111222 
WAVCIS,ioos:station:WAVCIS:CSI16:1,2012-03-06T06:00:00Z,29.4012,-89.0355,8.63,11111222 
WAVCIS,ioos:station:WAVCIS:CSI16:1,2012-03-06T07:00:00Z,29.4012,-89.0355,8.555,11111222 
WAVCIS,ioos:station:WAVCIS:CSI16:1,2012-03-06T08:00:00Z,29.4012,-89.0355,8.489,11111222 
WAVCIS,ioos:station:WAVCIS:CSI16:1,2012-03-06T09:00:00Z,29.4012,-89.0355,8.455,11111222 
WAVCIS,ioos:station:WAVCIS:CSI16:1,2012-03-06T10:00:00Z,29.4012,-89.0355,8.438,11111222 
WAVCIS,ioos:station:WAVCIS:CSI16:1,2012-03-06T11:00:00Z,29.4012,-89.0355,8.433,11111222 
WAVCIS,ioos:station:WAVCIS:CSI16:1,2012-03-06T12:00:00Z,29.4012,-89.0355,8.457,11111222 
WAVCIS,ioos:station:WAVCIS:CSI16:1,2012-03-06T13:00:00Z,29.4012,-89.0355,8.497,11111222 
WAVCIS,ioos:station:WAVCIS:CSI16:1,2012-03-06T14:00:00Z,29.4012,-89.0355,8.543,11111222 
WAVCIS,ioos:station:WAVCIS:CSI16:1,2012-03-06T15:00:00Z,29.4012,-89.0355,8.603,11111222 
WAVCIS,ioos:station:WAVCIS:CSI16:1,2012-03-06T16:00:00Z,29.4012,-89.0355,8.662,11111222 
WAVCIS,ioos:station:WAVCIS:CSI16:1,2012-03-06T17:00:00Z,29.4012,-89.0355,8.703,11111222 
WAVCIS,ioos:station:WAVCIS:CSI16:1,2012-03-06T18:00:00Z,29.4012,-89.0355,8.717,11111222 
WAVCIS,ioos:station:WAVCIS:CSI16:1,2012-03-06T19:00:00Z,29.4012,-89.0355,8.744,11111222 
WAVCIS,ioos:station:WAVCIS:CSI16:1,2012-03-06T20:00:00Z,29.4012,-89.0355,8.775,11111222 
WAVCIS,ioos:station:WAVCIS:CSI16:1,2012-03-06T21:00:00Z,29.4012,-89.0355,8.804,11111222 
WAVCIS,ioos:station:WAVCIS:CSI16:1,2012-03-06T22:00:00Z,29.4012,-89.0355,8.822,11111222 
WAVCIS,ioos:station:WAVCIS:CSI16:1,2012-03-06T23:00:00Z,29.4012,-89.0355,8.858,11111222 
WAVCIS,ioos:station:WAVCIS:CSI16:1,2012-03-07T00:00:00Z,29.4012,-89.0355,8.888,11111222 
WAVCIS,ioos:station:WAVCIS:CSI16:1,2012-03-07T01:00:00Z,29.4012,-89.0355,8.921,11111222 
WAVCIS,ioos:station:WAVCIS:CSI16:1,2012-03-07T02:00:00Z,29.4012,-89.0355,8.956,11111222 
WAVCIS,ioos:station:WAVCIS:CSI16:1,2012-03-07T03:00:00Z,29.4012,-89.0355,8.973,11111222 
WAVCIS,ioos:station:WAVCIS:CSI16:1,2012-03-07T04:00:00Z,29.4012,-89.0355,8.971,11111222 
WAVCIS,ioos:station:WAVCIS:CSI16:1,2012-03-07T05:00:00Z,29.4012,-89.0355,8.949,11111222 
WAVCIS,ioos:station:WAVCIS:CSI16:1,2012-03-07T06:00:00Z,29.4012,-89.0355,8.885,11111222 
WAVCIS,ioos:station:WAVCIS:CSI16:1,2012-03-07T07:00:00Z,29.4012,-89.0355,8.834,11111222 
WAVCIS,ioos:station:WAVCIS:CSI16:1,2012-03-07T08:00:00Z,29.4012,-89.0355,8.778,11111222 
WAVCIS,ioos:station:WAVCIS:CSI16:1,2012-03-07T09:00:00Z,29.4012,-89.0355,8.733,11111222 
WAVCIS,ioos:station:WAVCIS:CSI16:1,2012-03-07T10:00:00Z,29.4012,-89.0355,8.713,11111222 
WAVCIS,ioos:station:WAVCIS:CSI16:1,2012-03-07T11:00:00Z,29.4012,-89.0355,8.704,11111222 
WAVCIS,ioos:station:WAVCIS:CSI16:1,2012-03-07T12:00:00Z,29.4012,-89.0355,8.711,11111222 
WAVCIS,ioos:station:WAVCIS:CSI16:1,2012-03-07T13:00:00Z,29.4012,-89.0355,8.722,11111222 
WAVCIS,ioos:station:WAVCIS:CSI16:1,2012-03-07T14:00:00Z,29.4012,-89.0355,8.738,11111222 
WAVCIS,ioos:station:WAVCIS:CSI16:1,2012-03-07T15:00:00Z,29.4012,-89.0355,8.771,11111222 
WAVCIS,ioos:station:WAVCIS:CSI16:1,2012-03-07T16:00:00Z,29.4012,-89.0355,8.781,11111222 
WAVCIS,ioos:station:WAVCIS:CSI16:1,2012-03-07T17:00:00Z,29.4012,-89.0355,8.786,11111222 
WAVCIS,ioos:station:WAVCIS:CSI16:1,2012-03-07T18:00:00Z,29.4012,-89.0355,8.77,11111222 
WAVCIS,ioos:station:WAVCIS:CSI16:1,2012-03-07T19:00:00Z,29.4012,-89.0355,8.76,11111222 
WAVCIS,ioos:station:WAVCIS:CSI16:1,2012-03-07T20:00:00Z,29.4012,-89.0355,8.751,11111222 
WAVCIS,ioos:station:WAVCIS:CSI16:1,2012-03-07T21:00:00Z,29.4012,-89.0355,8.758,11111222 
WAVCIS,ioos:station:WAVCIS:CSI16:1,2012-03-07T22:00:00Z,29.4012,-89.0355,8.777,11111222 
WAVCIS,ioos:station:WAVCIS:CSI16:1,2012-03-07T23:00:00Z,29.4012,-89.0355,8.804,11111222 
WAVCIS,ioos:station:WAVCIS:CSI16:1,2012-03-08T00:00:00Z,29.4012,-89.0355,8.833,11111222 
WAVCIS,ioos:station:WAVCIS:CSI16:1,2012-03-08T01:00:00Z,29.4012,-89.0355,8.873,11111222 
WAVCIS,ioos:station:WAVCIS:CSI16:1,2012-03-08T02:00:00Z,29.4012,-89.0355,8.911,11111222 
WAVCIS,ioos:station:WAVCIS:CSI16:1,2012-03-08T03:00:00Z,29.4012,-89.0355,8.941,11111222 
WAVCIS,ioos:station:WAVCIS:CSI16:1,2012-03-08T04:00:00Z,29.4012,-89.0355,8.954,11111222 
WAVCIS,ioos:station:WAVCIS:CSI16:1,2012-03-08T05:00:00Z,29.4012,-89.0355,8.958,11111222 
WAVCIS,ioos:station:WAVCIS:CSI16:1,2012-03-08T06:00:00Z,29.4012,-89.0355,8.928,11111222 
WAVCIS,ioos:station:WAVCIS:CSI16:1,2012-03-08T07:00:00Z,29.4012,-89.0355,8.894,11111222 
WAVCIS,ioos:station:WAVCIS:CSI16:1,2012-03-08T08:00:00Z,29.4012,-89.0355,8.843,11111222 
WAVCIS,ioos:station:WAVCIS:CSI16:1,2012-03-08T09:00:00Z,29.4012,-89.0355,8.817,11111222 
WAVCIS,ioos:station:WAVCIS:CSI16:1,2012-03-08T10:00:00Z,29.4012,-89.0355,8.819,11111222 
WAVCIS,ioos:station:WAVCIS:CSI16:1,2012-03-08T11:00:00Z,29.4012,-89.0355,8.807,11111222 
WAVCIS,ioos:station:WAVCIS:CSI16:1,2012-03-08T12:00:00Z,29.4012,-89.0355,8.812,11111222 
WAVCIS,ioos:station:WAVCIS:CSI16:1,2012-03-08T13:00:00Z,29.4012,-89.0355,8.827,11111222 
WAVCIS,ioos:station:WAVCIS:CSI16:1,2012-03-08T14:00:00Z,29.4012,-89.0355,8.851,11111222 
WAVCIS,ioos:station:WAVCIS:CSI16:1,2012-03-08T15:00:00Z,29.4012,-89.0355,8.882,11111222 
WAVCIS,ioos:station:WAVCIS:CSI16:1,2012-03-08T16:00:00Z,29.4012,-89.0355,8.908,11111222 
WAVCIS,ioos:station:WAVCIS:CSI16:1,2012-03-08T17:00:00Z,29.4012,-89.0355,8.923,11111222 
WAVCIS,ioos:station:WAVCIS:CSI16:1,2012-03-08T18:00:00Z,29.4012,-89.0355,8.904,11111222 
WAVCIS,ioos:station:WAVCIS:CSI16:1,2012-03-08T19:00:00Z,29.4012,-89.0355,8.878,11111222 
WAVCIS,ioos:station:WAVCIS:CSI16:1,2012-03-08T20:00:00Z,29.4012,-89.0355,8.862,11111222 
WAVCIS,ioos:station:WAVCIS:CSI16:1,2012-03-08T21:00:00Z,29.4012,-89.0355,8.852,11111222 
WAVCIS,ioos:station:WAVCIS:CSI16:1,2012-03-08T22:00:00Z,29.4012,-89.0355,8.839,11111222 
WAVCIS,ioos:station:WAVCIS:CSI16:1,2012-03-08T23:00:00Z,29.4012,-89.0355,8.861,11111222 
WAVCIS,ioos:station:WAVCIS:CSI16:1,2012-03-09T00:00:00Z,29.4012,-89.0355,8.859,11111222 
WAVCIS,ioos:station:WAVCIS:CSI16:1,2012-03-09T01:00:00Z,29.4012,-89.0355,8.874,11111222 
WAVCIS,ioos:station:WAVCIS:CSI16:1,2012-03-09T02:00:00Z,29.4012,-89.0355,8.889,11111222 
WAVCIS,ioos:station:WAVCIS:CSI16:1,2012-03-09T03:00:00Z,29.4012,-89.0355,8.899,11111222 
WAVCIS,ioos:station:WAVCIS:CSI16:1,2012-03-09T04:00:00Z,29.4012,-89.0355,8.906,11111222 
WAVCIS,ioos:station:WAVCIS:CSI16:1,2012-03-09T05:00:00Z,29.4012,-89.0355,8.906,11111222 
WAVCIS,ioos:station:WAVCIS:CSI16:1,2012-03-09T06:00:00Z,29.4012,-89.0355,8.877,11111222 
WAVCIS,ioos:station:WAVCIS:CSI16:1,2012-03-09T07:00:00Z,29.4012,-89.0355,8.845,11111222 
WAVCIS,ioos:station:WAVCIS:CSI16:1,2012-03-09T08:00:00Z,29.4012,-89.0355,8.812,11111222 
WAVCIS,ioos:station:WAVCIS:CSI16:1,2012-03-09T09:00:00Z,29.4012,-89.0355,8.791,11111222 
WAVCIS,ioos:station:WAVCIS:CSI16:1,2012-03-09T10:00:00Z,29.4012,-89.0355,8.771,11111222 
WAVCIS,ioos:station:WAVCIS:CSI16:1,2012-03-09T11:00:00Z,29.4012,-89.0355,8.771,11111222 
WAVCIS,ioos:station:WAVCIS:CSI16:1,2012-03-09T12:00:00Z,29.4012,-89.0355,8.785,11111222 
WAVCIS,ioos:station:WAVCIS:CSI16:1,2012-03-09T13:00:00Z,29.4012,-89.0355,8.798,11111222 
WAVCIS,ioos:station:WAVCIS:CSI16:1,2012-03-09T14:00:00Z,29.4012,-89.0355,8.861,11111222 
WAVCIS,ioos:station:WAVCIS:CSI16:1,2012-03-09T15:00:00Z,29.4012,-89.0355,8.846,11111222 
WAVCIS,ioos:station:WAVCIS:CSI16:1,2012-03-09T16:00:00Z,29.4012,-89.0355,8.857,11111222 
WAVCIS,ioos:station:WAVCIS:CSI16:1,2012-03-09T17:00:00Z,29.4012,-89.0355,8.933,11111222 
WAVCIS,ioos:station:WAVCIS:CSI16:1,2012-03-09T18:00:00Z,29.4012,-89.0355,8.887,11111222 
WAVCIS,ioos:station:WAVCIS:CSI16:1,2012-03-09T19:00:00Z,29.4012,-89.0355,8.851,11111222 
WAVCIS,ioos:station:WAVCIS:CSI16:1,2012-03-09T20:00:00Z,29.4012,-89.0355,8.838,11111222 
WAVCIS,ioos:station:WAVCIS:CSI16:1,2012-03-09T21:00:00Z,29.4012,-89.0355,8.903,11111222 
WAVCIS,ioos:station:WAVCIS:CSI16:1,2012-03-09T22:00:00Z,29.4012,-89.0355,8.806,11111222 
WAVCIS,ioos:station:WAVCIS:CSI16:1,2012-03-09T23:00:00Z,29.4012,-89.0355,8.749,11111222 
WAVCIS,ioos:station:WAVCIS:CSI16:1,2012-03-10T00:00:00Z,29.4012,-89.0355,8.79,11111222 
WAVCIS,ioos:station:WAVCIS:CSI16:1,2012-03-10T01:00:00Z,29.4012,-89.0355,8.802,11111222 
WAVCIS,ioos:station:WAVCIS:CSI16:1,2012-03-10T02:00:00Z,29.4012,-89.0355,8.825,11111222 
WAVCIS,ioos:station:WAVCIS:CSI16:1,2012-03-10T03:00:00Z,29.4012,-89.0355,8.834,11111222 
WAVCIS,ioos:station:WAVCIS:CSI16:1,2012-03-10T04:00:00Z,29.4012,-89.0355,8.879,11111222 
WAVCIS,ioos:station:WAVCIS:CSI16:1,2012-03-10T05:00:00Z,29.4012,-89.0355,8.901,11111222 
WAVCIS,ioos:station:WAVCIS:CSI16:1,2012-03-10T06:00:00Z,29.4012,-89.0355,8.926,11111222 
WAVCIS,ioos:station:WAVCIS:CSI16:1,2012-03-10T07:00:00Z,29.4012,-89.0355,8.929,11111222 
WAVCIS,ioos:station:WAVCIS:CSI16:1,2012-03-10T08:00:00Z,29.4012,-89.0355,8.942,11111222 
WAVCIS,ioos:station:WAVCIS:CSI16:1,2012-03-10T09:00:00Z,29.4012,-89.0355,8.942,11111222 
WAVCIS,ioos:station:WAVCIS:CSI16:1,2012-03-10T10:00:00Z,29.4012,-89.0355,8.973,11111222 
WAVCIS,ioos:station:WAVCIS:CSI16:1,2012-03-10T11:00:00Z,29.4012,-89.0355,9.005,11111222 
WAVCIS,ioos:station:WAVCIS:CSI16:1,2012-03-10T12:00:00Z,29.4012,-89.0355,9.055,11111222 
WAVCIS,ioos:station:WAVCIS:CSI16:1,2012-03-10T13:00:00Z,29.4012,-89.0355,9.089,11111222 
WAVCIS,ioos:station:WAVCIS:CSI16:1,2012-03-10T14:00:00Z,29.4012,-89.0355,9.093,11111222 
WAVCIS,ioos:station:WAVCIS:CSI16:1,2012-03-10T15:00:00Z,29.4012,-89.0355,9.108,11111222 
WAVCIS,ioos:station:WAVCIS:CSI16:1,2012-03-10T16:00:00Z,29.4012,-89.0355,9.11,11111222 
WAVCIS,ioos:station:WAVCIS:CSI16:1,2012-03-10T17:00:00Z,29.4012,-89.0355,9.101,11111222 
WAVCIS,ioos:station:WAVCIS:CSI16:1,2012-03-10T18:00:00Z,29.4012,-89.0355,9.079,11111222 
WAVCIS,ioos:station:WAVCIS:CSI16:1,2012-03-10T19:00:00Z,29.4012,-89.0355,9.033,11111222 
WAVCIS,ioos:station:WAVCIS:CSI16:1,2012-03-10T20:00:00Z,29.4012,-89.0355,8.955,11111222 
WAVCIS,ioos:station:WAVCIS:CSI16:1,2012-03-10T21:00:00Z,29.4012,-89.0355,8.875,11111222 
WAVCIS,ioos:station:WAVCIS:CSI16:1,2012-03-10T22:00:00Z,29.4012,-89.0355,8.806,11111222 
WAVCIS,ioos:station:WAVCIS:CSI16:1,2012-03-10T23:00:00Z,29.4012,-89.0355,8.774,11111222 
WAVCIS,ioos:station:WAVCIS:CSI16:1,2012-03-11T00:00:00Z,29.4012,-89.0355,8.747,11111222 
WAVCIS,ioos:station:WAVCIS:CSI16:1,2012-03-11T01:00:00Z,29.4012,-89.0355,8.726,11111222 
WAVCIS,ioos:station:WAVCIS:CSI16:1,2012-03-11T02:00:00Z,29.4012,-89.0355,8.721,11111222 
WAVCIS,ioos:station:WAVCIS:CSI16:1,2012-03-11T03:00:00Z,29.4012,-89.0355,8.723,11111222 
WAVCIS,ioos:station:WAVCIS:CSI16:1,2012-03-11T04:00:00Z,29.4012,-89.0355,8.737,11111222 
WAVCIS,ioos:station:WAVCIS:CSI16:1,2012-03-11T05:00:00Z,29.4012,-89.0355,8.747,11111222 
WAVCIS,ioos:station:WAVCIS:CSI16:1,2012-03-11T06:00:00Z,29.4012,-89.0355,8.766,11111222 
WAVCIS,ioos:station:WAVCIS:CSI16:1,2012-03-11T07:00:00Z,29.4012,-89.0355,8.797,11111222 
WAVCIS,ioos:station:WAVCIS:CSI16:1,2012-03-11T08:00:00Z,29.4012,-89.0355,8.81,11111222 
WAVCIS,ioos:station:WAVCIS:CSI16:1,2012-03-11T09:00:00Z,29.4012,-89.0355,8.84,11111222 
WAVCIS,ioos:station:WAVCIS:CSI16:1,2012-03-11T10:00:00Z,29.4012,-89.0355,8.849,11111222 
WAVCIS,ioos:station:WAVCIS:CSI16:1,2012-03-11T11:00:00Z,29.4012,-89.0355,8.876,11111222 
WAVCIS,ioos:station:WAVCIS:CSI16:1,2012-03-11T12:00:00Z,29.4012,-89.0355,8.921,11111222 
WAVCIS,ioos:station:WAVCIS:CSI16:1,2012-03-11T13:00:00Z,29.4012,-89.0355,8.957,11111222 
WAVCIS,ioos:station:WAVCIS:CSI16:1,2012-03-11T14:00:00Z,29.4012,-89.0355,8.995,11111222 
WAVCIS,ioos:station:WAVCIS:CSI16:1,2012-03-11T15:00:00Z,29.4012,-89.0355,9.018,11111222 
WAVCIS,ioos:station:WAVCIS:CSI16:1,2012-03-11T16:00:00Z,29.4012,-89.0355,9.04,11111222 
WAVCIS,ioos:station:WAVCIS:CSI16:1,2012-03-11T17:00:00Z,29.4012,-89.0355,9.028,11111222 
WAVCIS,ioos:station:WAVCIS:CSI16:1,2012-03-11T18:00:00Z,29.4012,-89.0355,9.021,11111222 
WAVCIS,ioos:station:WAVCIS:CSI16:1,2012-03-11T19:00:00Z,29.4012,-89.0355,8.988,11111222 
WAVCIS,ioos:station:WAVCIS:CSI16:1,2012-03-11T20:00:00Z,29.4012,-89.0355,8.936,11111222 
WAVCIS,ioos:station:WAVCIS:CSI16:1,2012-03-11T21:00:00Z,29.4012,-89.0355,8.882,11111222 
WAVCIS,ioos:station:WAVCIS:CSI16:1,2012-03-11T22:00:00Z,29.4012,-89.0355,8.809,11111222 
WAVCIS,ioos:station:WAVCIS:CSI16:1,2012-03-11T23:00:00Z,29.4012,-89.0355,8.734,11111222 
WAVCIS,ioos:station:WAVCIS:CSI16:1,2012-03-12T00:00:00Z,29.4012,-89.0355,8.683,11111222 
WAVCIS,ioos:station:WAVCIS:CSI16:1,2012-03-12T01:00:00Z,29.4012,-89.0355,8.644,11111222 
WAVCIS,ioos:station:WAVCIS:CSI16:1,2012-03-12T02:00:00Z,29.4012,-89.0355,8.627,11111222 
WAVCIS,ioos:station:WAVCIS:CSI16:1,2012-03-12T03:00:00Z,29.4012,-89.0355,8.634,11111222 
WAVCIS,ioos:station:WAVCIS:CSI16:1,2012-03-12T04:00:00Z,29.4012,-89.0355,8.638,11111222 